User: anonymous   Login
Location: ??
(34.7707°N, 135.6540°E)
Time: 06:48:01
(UTC+00:00)
Language:

Tiangong - Orbit

View from above orbital plane
View from above orbital plane
View from above satellite
View from above satellite

Ground track
Ground track

The orbit data is extracted from the following two-line orbital elements,

1 48274U 21035A   21299.74964612  .00018173  00000-0  21481-3 0  9997
2 48274  41.4701 200.7902 0006416 265.9063 187.1042 15.60845402 28279
Epoch (UTC): 26 October 2021 17:59:29
Eccentricity: 0.0006416
inclination: 41.4701°
perigee height: 381 km
apogee height: 389 km
right ascension of ascending node: 200.7902°
argument of perigee: 265.9063°
revolutions per day: 15.60845402
mean anomaly at epoch: 187.1042°
orbit number at epoch: 2827

The dashed part of the orbit path shows where the satellite is in the earth's shadow,  

DLR